This is the latest recevied weather packets stored in our database for station/object KD7JB. If no packets are shown the sender has not sent any weather packets the latest 1 day(s).
| Time | Temp. | Humidity | Pressure | Rain* | Wind** | Luminosity | Snow |
|---|---|---|---|---|---|---|---|
| 1778041761 | 16.67° C | 49% | 1174.3 hPa | 0 mm | 1.34 m/s, 9° | 0 W/m² | - |
| 1778041460 | 16.67° C | 49% | 1174.3 hPa | 0 mm | 0.89 m/s, 3° | 0 W/m² | - |
| 1778041158 | 16.67° C | 49% | 1174.5 hPa | 0 mm | 1.34 m/s, 12° | 0 W/m² | - |
| 1778040855 | 17.22° C | 48% | 1174.4 hPa | 0 mm | 1.34 m/s, 358° | 0 W/m² | - |
| 1778040552 | 17.22° C | 47% | 1174.2 hPa | 0 mm | 1.34 m/s, 358° | 0 W/m² | - |
| 1778040250 | 17.22° C | 47% | 1174.4 hPa | 0 mm | 1.34 m/s, 357° | 0 W/m² | - |
| 1778039945 | 17.22° C | 47% | 1174.2 hPa | 0 mm | 0.89 m/s, 15° | 0 W/m² | - |
| 1778039643 | 17.22° C | 47% | 1174.2 hPa | 0 mm | 0.89 m/s, 1° | 0 W/m² | - |
| 1778039340 | 16.67° C | 49% | 1174.2 hPa | 0 mm | 0.89 m/s, 357° | 0 W/m² | - |
| 1778039037 | 16.11° C | 50% | 1174.2 hPa | 0 mm | 0.89 m/s, 354° | 0 W/m² | - |
| 1778038734 | 16.67° C | 50% | 1174.2 hPa | 0 mm | 0 m/s | 0 W/m² | - |
| 1778038431 | 16.67° C | 49% | 1174.2 hPa | 0 mm | 0.89 m/s, 327° | 1 W/m² | - |
| 1778038128 | 16.67° C | 48% | 1174 hPa | 0 mm | 0.45 m/s, 340° | 1 W/m² | - |
| 1778037825 | 16.67° C | 49% | 1174 hPa | 0 mm | 0 m/s | 2 W/m² | - |
| 1778037522 | 17.22° C | 49% | 1174.2 hPa | 0 mm | 0.45 m/s, 343° | 4 W/m² | - |
| 1778037219 | 16.67° C | 50% | 1173.9 hPa | 0 mm | 1.34 m/s, 297° | 5 W/m² | - |
| 1778036916 | 17.22° C | 50% | 1174 hPa | 0 mm | 0.89 m/s, 288° | 8 W/m² | - |
| 1778036615 | 17.22° C | 49% | 1174 hPa | 0 mm | 0.89 m/s, 293° | 10 W/m² | - |
| 1778036311 | 17.78° C | 48% | 1173.9 hPa | 0 mm | 1.79 m/s, 278° | 13 W/m² | - |
| 1778036007 | 18.33° C | 47% | 1173.8 hPa | 0 mm | 0.45 m/s, 333° | 15 W/m² | - |
| 1778035705 | 18.33° C | 47% | 1174 hPa | 0 mm | 1.79 m/s, 278° | 18 W/m² | - |
| 1778035401 | 18.89° C | 46% | 1174 hPa | 0 mm | 2.24 m/s, 284° | 21 W/m² | - |
| 1778035097 | 18.89° C | 46% | 1173.9 hPa | 0 mm | 1.79 m/s, 276° | 24 W/m² | - |
| 1778034794 | 18.89° C | 45% | 1173.8 hPa | 0 mm | 1.79 m/s, 275° | 26 W/m² | - |
| 1778034491 | 19.44° C | 45% | 1174 hPa | 0 mm | 3.58 m/s, 286° | 29 W/m² | - |
* Rain latest hour (hover to see other rain measurements)
** Current wind speed in m/s (hover to see current wind gust speed)